Flag for Egypt Weather past 2 weeks in Port Said, Egypt

Now
82 °F

Sunny.


Feels Like: 81 °F
Forecast: 76 / 85 °F
Wind: 8 mph from Southwest

Location: Port Said Airport

Current Time: Oct 23, 2014 at 5:26:55 PM

Latest Report: Oct 23, 2014 at 4:00 PM


Visibility: 10 mi

Pressure: 29.95 "Hg

Humidity: 37%

Dew point: 54 °F

Location of Port SaidLocation

Historic Weather in Port Said — Graph

°F

Port Said temperature yesterday

Maximum temperature yesterday: 77 °F (at 2:00 PM)
Minimum temperature yesterday: 68 °F (at 6:00 AM)
Average temperature yesterday: 72 °F

Past Weeks' High & Low Weather Summary

 TemperatureHumidityPressure
High84 °F (Oct 18, 2:00 PM)94% (Oct 18, 7:00 AM)30.15 "Hg (Oct 18, 7:00 AM)
Low68 °F (Oct 21, 7:00 AM)33% (Oct 23, 2:00 PM)29.77 "Hg (Oct 19, 2:00 PM)
Average76 °F69%29.97 "Hg
* Reported Oct 8 4:00 PM — Oct 23 4:00 PM, Port Said, Weather by CustomWeather, © 2014

Note: Actual official high and low records may vary slightly from our data, if they occured in-between our weather recording intervals... More about our weather records

Advertising

Port Said weather history for previous 24 hours

 ConditionsComfort  
Time TempWeatherWind HumidityBarometerVisibility
4:00 PM
Oct 23
82 °FSunny.8 mph37%29.95 "Hg10 mi
3:00 PM82 °FSunny.6 mph37%29.98 "Hg10 mi
2:00 PM84 °FSunny.12 mph33%29.95 "Hg10 mi
1:00 PM82 °FSunny.6 mph37%29.98 "Hg10 mi
12:00 PM81 °FSunny.9 mph42%29.98 "Hg10 mi
11:00 AM79 °FSunny.10 mph48%30.01 "Hg10 mi
10:00 AM75 °FSunny.12 mph57%30.01 "Hg10 mi
9:00 AM73 °FSunny.10 mph69%30.01 "Hg10 mi
8:00 AM70 °FSunny.12 mph78%29.98 "Hg10 mi
7:00 AM68 °FSunny.10 mph83%29.98 "Hg10 mi
6:00 AM68 °FSunny.9 mph83%29.95 "Hg10 mi
5:00 AM68 °FClear.8 mph83%29.95 "Hg10 mi
4:00 AM68 °FClear.2 mph83%29.95 "Hg10 mi
3:00 AM68 °FClear.6 mph83%29.95 "Hg10 mi
2:00 AM70 °FClear.7 mph78%29.95 "Hg10 mi
1:00 AM72 °FPassing clouds.5 mph83%29.98 "HgN/A
12:00 AM72 °FPassing clouds.7 mph83%29.98 "HgN/A
11:00 PM
Oct 22
72 °FPassing clouds.6 mph78%29.98 "HgN/A
10:00 PM72 °FPassing clouds.No wind73%29.98 "HgN/A
9:00 PM72 °FPassing clouds.No wind73%29.98 "HgN/A
8:00 PM73 °FPassing clouds.1 mph69%29.98 "HgN/A
7:00 PM73 °FPassing clouds.2 mph65%29.98 "HgN/A
6:00 PM73 °FPassing clouds.2 mph69%29.95 "HgN/A
5:00 PM73 °FPartly sunny.1 mph65%29.95 "HgN/A
Weather by CustomWeather, © 2014

See weather overviewHow to use our weather pages